Weather in Listvyanka

Russia / Ryazan Oblast     54°30′26″N   39°57′28″E
temp.,
°C
wind,
m/s
gust,
m/s
humid.,
%
clouds,
%
prec.,
mm/h
press.,
hPa
HPBL,
m
25 february, thu
thu2500:00−15ssw5995100 0.4 1031360
03:00−14ssw51094100 0.7 1028361
06:00−12ssw61195100 1.6 1023365
09:00−7sw71494100 3.9 1018537
12:00+1wsw71599100 1.9 1014486
15:00+2w614100100 2.2 1013410
18:00+2wnw61399100 0.0 1013351
21:00+1wnw5999100 0.0 1014294
26 february, fri
fri2600:00+1wnw3999100 0.0 1014255
03:00+1w41099100 0.1 1013244
06:00+2w51099100 0.4 1011261
09:00+2w61399100 1.3 1010377
12:00+2w614100100 0.0 1008426
15:00+2w715100100 0.1 1006383
18:00+2w71699100 0.1 1004495
21:00+2w71593100 0.1 1004655
27 february, sat
sat2700:00+2w8168597 0.0 1003822
03:000w6158883 0.0 1002533
06:00−1w6149250 0.0 1001431
09:00+1w7129865 0.0 1000630
12:00+1wnw612100100 0.1 1000679
15:000wnw71299100 0.3 1001614
18:00−7nnw61192100 0.4 1003664
21:00−10nnw61190100 0.5 1007647
28 february, sun
sun2800:00−12nnw6119199 0.1 1010591
03:00−13nnw5119199 0.1 1013536
06:00−14nnw51192100 0.0 1014416
09:00−13nnw599185 0.0 1016476
12:00−11nnw588891 0.0 1017570
15:00−9nnw588895 0.0 1018644
18:00−9nnw4892100 0.0 1019310
21:00−11nnw369699 0.1 1021128
1 march, mon
mon100:00−12nnw349795 0.1 102382
03:00−13nnw349786 0.1 102558
06:00−13nnw339742 0.0 102644
09:00−10nw259658 0.0 1027152
12:00−5nw369173 0.0 1028431
15:00−3wnw468983 0.1 1027535
18:00−6wsw469288 0.0 1026104
21:00−2wnw4109479 0.0 1025489